Find SONATE-2

NORAD ID: 59112 Int'l Des: 2024-043 Owner: WURZ Country: D operational
LEOCIRCULARRETROGRADE

当前视图

正在加载3D地球...

About SONATE-2

SONATE-2 (NORAD 59112) is a satellite launched Mar 4, 2024 by WURZ of D. It operates in LEO, CIRCULAR, RETROGRADE orbit with a mass of 12.00 kg.

即将过境

Passes for default location (London). Set your location on the main map for personalized predictions.

高度历史

Loading altitude history...

两行轨道根数

1 59112U 24043Q 26194.95526617 .00029149 00000-0 35093-3 0 9992
2 59112 97.5553 347.0382 0006889 110.1263 250.0735 15.60757395132068
Epoch: Jul 13, 2026 • Age: 15 hours

当前状态

高度 412.4 km
远地点 / 近地点 N/A
速度 7.66 km/s
星下点 -61.65°S, 13.96°E
发射日期 Mar 4, 2024
运行时间 2.3 years
类型 other

技术详情

分类 Payload
质量 12.00 kg
干质量 12.00 kg
总质量 12.00 kg
长度 0.30 m
直径 0.10 m
跨度 0.60 m
形状 Box + 2 pan
制造商 WURZ
平台类型 Cubesat 6U
阶段状态 In Orbit
所有者/国家 WURZ/D

Most Searched